[[{"header":{"parameterUnit":"m.s-1","parameterCategory":1,"la1":30.2991,"la2":30.254,"lo1":-89.0895,"lo2":-89.0444,"dy":0.0017,"dx":0.0017,"nx":28,"ny":28,"refTime":"2024-09-28T03:00:00:Z","depth":0,"parameterNumber":2,"parameterNumberName":"U-component_of_WINDS"},"data":[0,0,0,0,0,0,0,0,0,0,0,0,0,0,0,0,0,0,0,0,0,0,0,0,0,0,0,0,0,0,0,0,0,0,0,0,0,0,0,0,0,0,0,0,0,0,0,0,0,0,0,0,0,0,0,0,0,0,2.1242,2.1244,0,2.1355,2.1356,2.1358,2.1373,2.1372,2.1371,2.137,2.1488,2.1492,2.1496,0,0,0,0,0,0,0,0,0,0,0,0,0,2.1044,2.1047,2.1242,2.1244,2.1245,2.1355,2.1356,2.1358,2.1373,2.1372,2.1371,2.137,2.1487,2.1492,2.1497,0,0,0,0,0,0,0,0,0,0,0,0,0,2.1141,2.1049,2.1242,2.1266,2.1269,2.1354,2.1356,2.1358,2.1374,2.1372,2.137,2.1369,2.1485,2.1491,2.1497,2.1567,0,0,2.1516,2.1519,0,0,0,0,0,0,0,0,2.1135,2.1148,2.1261,2.1265,2.1268,2.1348,2.133,2.1428,2.1374,2.1334,2.137,2.1368,2.1443,2.1453,2.1477,2.1573,2.1578,2.1517,2.152,2.1523,2.1525,0,0,0,0,0,0,0,2.1128,2.1143,2.1287,2.1263,2.1267,2.1272,2.1284,2.1348,2.1396,2.1337,2.1339,2.1352,2.1445,2.1471,2.148,2.1579,2.1516,2.1522,2.1526,2.1528,2.1738,2.1739,0,0,0,0,0,0,2.1117,2.1137,2.1283,2.129,2.1196,2.1277,2.129,2.1324,2.1395,2.1405,2.1353,2.1352,2.1461,2.1473,2.1484,2.157,2.1523,2.1529,2.1532,2.1736,2.1738,2.174,0,0,0,0,0,0,2.1113,2.113,2.1279,2.1214,2.1234,2.1282,2.132,2.1327,2.1354,2.1407,2.1416,2.1371,2.1461,2.1476,2.1546,2.1574,2.1532,2.1537,2.1734,2.1737,2.1739,2.1742,0,0,0,0,0,0,2.1107,2.1128,2.1154,2.1215,2.1237,2.1338,2.1322,2.1331,2.1364,2.1364,2.1427,2.1435,2.1461,2.1537,2.1552,2.1582,2.1542,2.1731,2.1735,2.1738,2.174,2.1745,2.1749,0,0,0,0,0,2.11,2.1151,2.1156,2.1173,2.1271,2.1339,2.1352,2.1379,2.1366,2.1393,2.1428,2.1433,2.1569,2.1544,2.1561,2.1593,2.173,2.1734,2.1738,2.1737,2.1744,2.1749,0,0,0,0,0,0,2.1094,2.116,2.1165,2.1238,2.1283,2.1342,2.1376,2.1385,2.1435,2.1433,2.1466,2.148,2.1548,2.1579,2.1549,2.1665,2.1648,2.1656,2.1642,2.1648,2.1653,2.1643,2.1547,0,0,0,0,0,2.1101,2.115,2.1206,2.1264,2.1287,2.1328,2.1359,2.1376,2.1424,2.1443,2.1483,2.153,2.1584,2.1618,2.167,2.1745,2.1759,2.1776,2.178,2.1784,2.179,2.1831,2.1839,2.1754,2.1754,2.1754,0,0,2.1116,2.1158,2.1187,2.1264,2.1301,2.1352,2.1344,2.1398,2.1436,2.1452,2.152,2.1551,2.1606,2.1679,2.1713,2.1706,2.1817,2.1789,2.1792,2.1796,2.1836,2.1844,2.1851,2.1757,2.1756,2.1756,0,0,2.1169,2.1206,2.1258,2.1295,2.1351,2.1378,2.1391,2.1449,2.147,2.1539,2.1552,2.1599,2.169,2.1729,2.176,2.1829,2.1836,2.1846,2.1869,2.1909,2.1915,2.1921,2.1945,2.1953,2.1852,2.1852,2.1852,0,2.118,2.1256,2.1285,2.1338,2.1372,2.1388,2.1442,2.1477,2.1547,2.157,2.1562,2.1676,2.1715,2.1796,2.1813,2.1839,2.1854,2.1837,2.1912,2.1918,2.1925,2.1947,2.1956,2.1852,2.1852,2.1852,2.1852,0,2.1268,2.132,2.1357,2.1422,2.1461,2.1514,2.1551,2.1586,2.1601,2.1629,2.17,2.1747,2.1808,2.1829,2.1844,2.1913,2.1907,2.1905,2.1889,2.1933,2.1954,2.1964,2.1853,2.1853,2.1853,2.1853,0,0,2.1318,2.1399,2.1412,2.1442,2.1505,2.1547,2.1602,2.1661,2.169,2.1739,2.1786,2.1863,2.1862,2.1898,2.1918,2.1953,2.2003,2.1947,2.1948,2.1954,2.2081,2.208,2.209,2.2009,2.2011,2.2012,2.2076,0,2.1377,2.1473,2.15,2.1582,2.1631,2.1648,2.1696,2.1741,2.1769,2.1816,2.1848,2.1902,2.1896,2.1918,2.1954,2.1989,2.2029,2.1985,2.2052,2.2054,2.2035,2.2102,2.2101,2.2159,2.2085,2.2086,2.2087,0,2.1458,2.1506,2.1592,2.1649,2.1671,2.1713,2.177,2.1814,2.1866,2.1884,2.1924,2.1941,2.2,2.1982,2.2064,2.2033,2.2063,2.2085,2.2088,2.2093,2.2072,2.2107,2.2178,2.2186,2.2101,2.21,2.2099,0,2.1483,2.1571,2.1634,2.1659,2.1728,2.1757,2.1787,2.1837,2.1871,2.1921,2.1943,2.2001,2.2031,2.2076,2.2108,2.2092,2.2186,2.2171,2.2203,2.2202,2.222,2.2218,2.2295,2.2243,2.2242,2.2242,2.2242,0,2.1545,2.1597,2.1646,2.1684,2.1743,2.1775,2.1833,2.1864,2.1908,2.1953,2.1973,2.2016,2.2056,2.2105,2.2131,2.2193,2.2208,2.2225,2.223,2.2222,2.2219,2.224,2.2236,2.2245,2.2244,2.2244,2.2243,0,2.1583,2.1618,2.1687,2.1746,2.1762,2.1803,2.1854,2.1892,2.1922,2.1979,2.1995,2.2042,2.21,2.2137,2.2211,2.2228,2.2297,2.2303,2.2278,2.2281,2.231,2.2306,2.2401,2.2415,2.2355,2.2355,2.2356,0,2.1618,2.1658,2.1722,2.1753,2.1783,2.1833,2.1868,2.1902,2.1937,2.1999,2.203,2.2089,2.2137,2.2229,2.227,2.2327,2.2333,2.2363,2.2342,2.2332,2.2332,2.2328,2.2332,2.2365,2.2366,2.2366,2.2367,0,2.1678,2.1693,2.1742,2.1797,2.1837,2.1883,2.1928,2.1953,2.1995,2.2034,2.2092,2.213,2.2205,2.2263,2.2324,2.2356,2.2369,2.2373,2.2383,2.2374,2.2357,2.2365,2.2286,2.237,2.237,2.237,2.237,2.2369,2.1715,2.1751,2.1801,2.1854,2.1892,2.1934,2.1972,2.2007,2.2056,2.2119,2.2137,2.2198,2.2249,2.2332,2.2365,2.2414,2.2411,2.2426,2.2429,2.2432,2.2431,2.2351,2.2426,2.2426,2.2426,2.2426,2.2426,0,2.1774,2.1807,2.1856,2.1918,2.196,2.1968,2.2019,2.2054,2.2107,2.2153,2.2201,2.2268,2.2325,2.2371,2.243,2.246,2.2467,2.2474,2.2471,2.2478,2.2432,2.2416,2.2467,2.2467,2.2467,2.2467,2.2467,2.2467,2.1809,2.187,2.1892,2.1972,2.2005,2.2064,2.2092,2.2131,2.2168,2.2242,2.2289,2.2319,2.2366,2.2428,2.2481,2.2493,2.2513,2.2519,2.2532,2.2487,2.2482,2.2477,2.2463,2.2523,2.2523,2.2574,2.2575,2.2575]},{"header":{"parameterUnit":"m.s-1","parameterCategory":1,"la1":30.2991,"la2":30.254,"lo1":-89.0895,"lo2":-89.0444,"dy":0.0017,"dx":0.0017,"nx":28,"ny":28,"refTime":"2024-09-28T03:00:00:Z","depth":0,"parameterNumber":3,"parameterNumberName":"V-component_of_WINDS"},"data":[0,0,0,0,0,0,0,0,0,0,0,0,0,0,0,0,0,0,0,0,0,0,0,0,0,0,0,0,0,0,0,0,0,0,0,0,0,0,0,0,0,0,0,0,0,0,0,0,0,0,0,0,0,0,0,0,0,0,2.4546,2.4548,0,2.4737,2.4739,2.4742,2.4817,2.4817,2.4816,2.4816,2.5006,2.5012,2.5017,0,0,0,0,0,0,0,0,0,0,0,0,0,2.4241,2.4247,2.4546,2.4548,2.4551,2.4737,2.474,2.4742,2.4817,2.4817,2.4816,2.4816,2.5004,2.5011,2.5017,0,0,0,0,0,0,0,0,0,0,0,0,0,2.4397,2.4248,2.4546,2.4611,2.4619,2.4736,2.474,2.4743,2.4818,2.4817,2.4816,2.4815,2.5002,2.501,2.5018,2.5084,0,0,2.5044,2.5047,0,0,0,0,0,0,0,0,2.4388,2.4408,2.4599,2.4607,2.4616,2.4753,2.4702,2.4857,2.4818,2.4742,2.4816,2.4815,2.4922,2.4937,2.4974,2.5092,2.5101,2.5044,2.5049,2.5053,2.5055,0,0,0,0,0,0,0,2.4377,2.44,2.4622,2.4602,2.4612,2.4629,2.465,2.4732,2.4833,2.4748,2.4754,2.4776,2.4926,2.4966,2.4979,2.5103,2.5044,2.5051,2.5057,2.506,2.5285,2.5286,0,0,0,0,0,0,2.4356,2.4391,2.4615,2.4627,2.4498,2.4635,2.4659,2.4709,2.4833,2.4851,2.4777,2.4779,2.4952,2.4969,2.4986,2.5071,2.5053,2.5061,2.5065,2.5284,2.5285,2.5286,0,0,0,0,0,0,2.4349,2.4376,2.4608,2.4511,2.4542,2.4641,2.4697,2.4714,2.4753,2.4854,2.4872,2.4799,2.4952,2.4974,2.5059,2.5079,2.5064,2.5072,2.5283,2.5284,2.5286,2.524,0,0,0,0,0,0,2.434,2.4373,2.44,2.4511,2.4547,2.4679,2.4698,2.4718,2.4768,2.4773,2.488,2.4897,2.4953,2.5046,2.5067,2.509,2.5078,2.5281,2.5283,2.5285,2.5241,2.524,2.524,0,0,0,0,0,2.4329,2.4378,2.4401,2.4427,2.4583,2.468,2.47,2.4766,2.4769,2.4796,2.4861,2.4893,2.5073,2.5054,2.5079,2.5104,2.528,2.5283,2.5285,2.5241,2.524,2.524,0,0,0,0,0,0,2.4264,2.4394,2.442,2.4507,2.4582,2.4693,2.4729,2.4764,2.4838,2.4839,2.4916,2.494,2.5018,2.5069,2.5046,2.5173,2.5179,2.5186,2.5137,2.5138,2.5137,2.5123,2.5085,0,0,0,0,0,2.4261,2.4331,2.4439,2.4505,2.4542,2.4628,2.4673,2.4718,2.4798,2.483,2.4901,2.4976,2.505,2.5096,2.517,2.5248,2.5272,2.5277,2.5277,2.5276,2.5281,2.5327,2.5331,2.5294,2.5294,2.5294,0,0,2.4253,2.4332,2.4371,2.4494,2.4558,2.4627,2.4655,2.4727,2.4779,2.484,2.4925,2.498,2.5069,2.5151,2.519,2.5196,2.5297,2.5279,2.5278,2.5284,2.533,2.5333,2.5336,2.5295,2.5295,2.5295,0,0,2.4274,2.4341,2.4404,2.4467,2.4564,2.4621,2.4636,2.4742,2.4781,2.4868,2.4916,2.4978,2.5103,2.5164,2.5212,2.5257,2.5289,2.5278,2.5276,2.532,2.5323,2.5325,2.5341,2.5346,2.5283,2.5283,2.5283,0,2.4251,2.436,2.4431,2.4501,2.4553,2.4614,2.4677,2.4735,2.4849,2.4883,2.4888,2.5047,2.5111,2.5209,2.522,2.5256,2.5275,2.5266,2.5317,2.532,2.5324,2.534,2.5346,2.5281,2.5281,2.5281,2.5282,0,2.4327,2.4401,2.444,2.4551,2.4608,2.4674,2.4754,2.4802,2.4841,2.4898,2.4985,2.5064,2.5155,2.5181,2.522,2.5284,2.5285,2.5302,2.5309,2.5325,2.5341,2.5348,2.5278,2.5279,2.528,2.528,0,0,2.4312,2.4463,2.4476,2.4528,2.4639,2.4697,2.4765,2.4856,2.4895,2.4972,2.5031,2.5135,2.5153,2.5206,2.5252,2.529,2.5321,2.5303,2.5307,2.5304,2.5397,2.5383,2.5389,2.5343,2.5344,2.5345,2.5389,0,2.4348,2.4476,2.4542,2.464,2.4709,2.4768,2.4828,2.4901,2.4956,2.5021,2.5081,2.5154,2.5171,2.5204,2.5245,2.5308,2.534,2.5306,2.5397,2.5399,2.5373,2.5398,2.5384,2.5422,2.5396,2.5397,2.5398,0,2.4408,2.4486,2.4592,2.4696,2.4727,2.4779,2.4868,2.493,2.5014,2.5051,2.5112,2.5157,2.523,2.5232,2.5333,2.5308,2.5349,2.5386,2.5389,2.54,2.54,2.541,2.5435,2.5441,2.5409,2.5408,2.5407,0,2.4387,2.4518,2.4599,2.4641,2.4764,2.4799,2.4852,2.4936,2.4986,2.5063,2.5096,2.5179,2.5224,2.5287,2.5353,2.5348,2.5447,2.5454,2.5479,2.5477,2.5497,2.5495,2.553,2.5523,2.5523,2.5523,2.5523,0,2.442,2.4482,2.4591,2.4641,2.4712,2.4787,2.4855,2.4911,2.4986,2.5046,2.5101,2.5156,2.524,2.5305,2.5357,2.5433,2.5453,2.5484,2.5497,2.5479,2.5475,2.5507,2.5506,2.5524,2.5524,2.5524,2.5523,0,2.4408,2.4484,2.4576,2.4685,2.4714,2.4762,2.4855,2.4904,2.4962,2.5038,2.506,2.515,2.5229,2.5302,2.5406,2.5441,2.5518,2.5535,2.549,2.5498,2.5518,2.5515,2.5575,2.5587,2.5571,2.5571,2.5571,0,2.4425,2.4475,2.459,2.4636,2.4688,2.476,2.4812,2.4887,2.4939,2.5039,2.5076,2.516,2.5232,2.5356,2.543,2.551,2.5529,2.5544,2.5541,2.5522,2.553,2.5526,2.5531,2.5543,2.5543,2.5543,2.5543,0,2.4446,2.4481,2.4556,2.4643,2.4704,2.4776,2.4849,2.4883,2.4971,2.5026,2.511,2.5165,2.5274,2.5356,2.5445,2.5498,2.5535,2.5543,2.5553,2.5536,2.5508,2.5524,2.5489,2.5542,2.5542,2.5542,2.5542,2.5542,2.445,2.4497,2.4586,2.4666,2.473,2.4797,2.485,2.4915,2.4986,2.5082,2.5121,2.5205,2.5288,2.5412,2.5464,2.5531,2.5538,2.5552,2.5556,2.5558,2.5555,2.5498,2.5547,2.5547,2.5547,2.5547,2.5547,0,2.4474,2.4534,2.4608,2.471,2.4773,2.4805,2.4887,2.4938,2.5012,2.5087,2.5157,2.5252,2.5333,2.5413,2.5498,2.5535,2.5554,2.5555,2.5553,2.5564,2.5544,2.5527,2.5538,2.5538,2.5538,2.5538,2.5538,2.5538,2.4494,2.4576,2.4621,2.4734,2.4794,2.4879,2.4924,2.4986,2.5047,2.5151,2.5219,2.5272,2.5349,2.544,2.5514,2.5536,2.5564,2.556,2.5586,2.5565,2.5565,2.5565,2.555,2.5566,2.5566,2.5601,2.5601,2.5602]}]]